This is the latest recevied weather packets stored in our database for station/object WX9WTF. If no packets are shown the sender has not sent any weather packets the latest 10 day(s).
| Time | Temp. | Humidity | Pressure | Rain* | Wind** | Luminosity | Snow |
|---|---|---|---|---|---|---|---|
| 1778033479 | 7.78° C | 98% | 1013.3 hPa | 0 mm | - | 0 W/m² | - |
| 1778033176 | 7.78° C | 98% | 1013.3 hPa | 0 mm | - | 0 W/m² | - |
| 1778032874 | 7.78° C | 98% | 1013 hPa | 0 mm | - | 0 W/m² | - |
| 1778032571 | 7.78° C | 97% | 1012.9 hPa | 0 mm | - | 0 W/m² | - |
| 1778032268 | 7.78° C | 97% | 1013 hPa | 0 mm | - | 0 W/m² | - |
| 1778031966 | 7.78° C | 97% | 1013 hPa | 0 mm | - | 0 W/m² | - |
| 1778031661 | 8.33° C | 97% | 1013 hPa | 0 mm | - | 0 W/m² | - |
| 1778031359 | 8.33° C | 97% | 1013.1 hPa | 0 mm | - | 0 W/m² | - |
| 1778031055 | 8.33° C | 97% | 1012.9 hPa | 0 mm | - | 0 W/m² | - |
| 1778030752 | 8.33° C | 97% | 1013 hPa | 0 mm | - | 1 W/m² | - |
| 1778030448 | 8.33° C | 97% | 1012.8 hPa | 0 mm | - | 1 W/m² | - |
| 1778030147 | 8.33° C | 97% | 1013 hPa | 0 mm | - | 2 W/m² | - |
| 1778029843 | 8.33° C | 97% | 1012.8 hPa | 0 mm | - | 4 W/m² | - |
| 1778029542 | 8.89° C | 97% | 1012.8 hPa | 0 mm | - | 6 W/m² | - |
| 1778029238 | 8.89° C | 97% | 1012.7 hPa | 0 mm | - | 7 W/m² | - |
| 1778028935 | 8.89° C | 97% | 1012.8 hPa | 0 mm | - | 9 W/m² | - |
| 1778028631 | 8.89° C | 96% | 1012.7 hPa | 0 mm | - | 14 W/m² | - |
| 1778028329 | 8.89° C | 96% | 1012.7 hPa | 0 mm | - | 18 W/m² | - |
| 1778028025 | 8.89° C | 96% | 1012.7 hPa | 0 mm | - | 19 W/m² | - |
| 1778027722 | 8.89° C | 96% | 1012.9 hPa | 0 mm | - | 18 W/m² | - |
| 1778027418 | 8.89° C | 96% | 1012.9 hPa | 0 mm | - | 25 W/m² | - |
| 1778027114 | 8.89° C | 96% | 1012.6 hPa | 0 mm | - | 35 W/m² | - |
| 1778026809 | 8.89° C | 95% | 1012.4 hPa | 0 mm | - | 34 W/m² | - |
| 1778026506 | 8.89° C | 95% | 1012.4 hPa | 0 mm | - | 34 W/m² | - |
| 1778026204 | 9.44° C | 95% | 1012.3 hPa | 0 mm | - | 36 W/m² | - |
* Rain latest hour (hover to see other rain measurements)
** Current wind speed in m/s (hover to see current wind gust speed)